Location: ?????
(33.6267°N, 35.4675°E)
Time: 23:15:36
(UTC+00:00)

Cosmos 1869 - Pass Details

Date: 12 November 2019
Orbit: 529 x 554 km, 82.5° (Epoch: 15 December)

Event Time Altitude Azimuth Distance (km) Brightness Sun altitude
Rises 15:25:38 0° 180° (S) 2,696 7.0 -10.4°
Reaches altitude 10° 15:27:48 10° 178° (S) 1,804 6.1 -10.8°
Maximum altitude 15:31:44 70° 95° (E) 579 3.2 -11.6°
Drops below altitude 10° 15:35:41 10° 12° (NNE) 1,802 5.7 -12.4°
Sets 15:37:50 0° 10° (N) 2,693 6.6 -12.9°
